Theta_e
314 312 312 312 312 314 314 314 315 316 317 316 315 316 317 318 319 318 318 319 320 322 322 321 322 324 322 320 320 321 320 318 324 329 325 332 329 330 329 330 330 330 337 338
313 313 315 316 317 316 315 316 315 316 316 316 315 316 316 318 318 318 318 319 322 321 320 321 321 321 322 320 317 316 316 316 315 322 326 325 333 334 340 334 334 335 339 340
313 315 317 316 315 316 315 315 315 315 315 315 315 315 315 318 318 318 318 318 320 321 320 320 321 320 320 318 319 320 319 315 317 318 319 321 317 325 338 340 335 340 341 341
314 315 316 315 315 315 314 315 316 315 315 315 316 315 314 317 316 316 317 318 318 320 320 320 320 320 319 318 316 316 315 315 316 315 317 318 322 322 323 329 329 330 331 330
314 314 314 315 315 315 314 315 315 315 313 313 314 314 315 315 316 316 315 318 318 320 319 320 319 320 321 321 320 319 318 317 316 313 314 315 318 322 326 320 325 327 326 330
313 315 314 314 315 315 315 314 313 313 312 313 314 314 315 315 315 316 317 317 318 319 319 320 320 320 320 320 319 319 319 318 318 318 315 313 314 313 313 315 316 320 326 324
315 316 315 315 314 314 313 312 310 312 312 314 314 315 316 317 317 318 317 317 318 319 319 320 319 319 319 318 319 319 319 319 319 318 319 319 319 319 313 314 313 313 313 314
316 316 315 316 317 314 313 311 313 317 317 317 317 319 317 319 317 318 318 318 318 319 319 319 319 319 319 318 318 319 319 320 320 319 319 319 320 319 318 314 313 314 319 320
315 316 317 317 317 316 315 315 314 317 319 319 315 315 315 317 318 317 317 318 318 319 319 319 319 318 318 317 317 318 319 319 320 319 318 319 319 319 319 318 318 315 314 315
315 315 316 316 316 316 315 315 316 319 320 320 317 316 314 318 318 317 316 314 315 316 317 317 318 317 317 317 316 316 316 317 317 318 318 318 319 319 321 323 322 320 319 318
316 314 315 316 316 315 314 315 317 318 317 317 316 314 316 317 316 316 316 316 316 316 317 316 316 316 317 316 317 317 317 317 317 318 319 319 320 319 320 319 318 317 318 318
316 316 315 314 314 315 318 316 318 320 319 319 317 316 316 316 315 316 316 316 316 315 316 317 317 317 317 317 317 317 316 316 316 316 316 317 317 317 316 316 316 314 315 317
314 314 316 316 314 316 317 317 317 317 317 317 320 317 316 317 316 317 316 316 316 316 315 318 317 317 317 317 317 317 317 316 316 316 316 316 316 316 316 316 315 316 316 314
315 316 316 317 316 314 316 316 315 317 318 316 319 317 315 316 317 316 316 316 316 316 315 316 317 317 317 317 317 317 317 316 317 316 316 317 317 316 316 316 316 316 316 316
313 315 315 315 315 315 313 313 315 317 317 317 315 316 315 314 316 315 315 316 316 315 315 315 316 317 317 317 316 316 317 319 318 318 319 318 318 318 318 318 317 317 316 316
313 314 315 315 314 314 313 313 314 314 316 316 316 316 315 316 315 316 316 316 315 316 316 318 317 316 318 318 317 317 317 317 316 315 315 315 315 318 318 318 317 317 317 315
308 311 312 312 312 313 313 315 316 316 315 315 318 317 315 316 315 314 314 316 316 318 317 316 316 317 317 317 317 316 316 315 315 315 315 315 315 315 314 315 316 316 316 315
308 309 309 309 312 312 312 315 315 315 317 317 316 317 317 315 315 314 315 314 313 314 314 314 315 315 315 315 315 316 315 315 314 313 313 313 313 313 312 312 313 314 316 316
312 311 308 312 309 312 312 316 316 317 317 315 315 314 314 313 313 313 314 312 312 311 312 311 312 313 314 313 314 314 314 314 313 312 312 311 311 311 312 312 311 311 312 313
315 312 309 309 311 313 315 315 315 315 315 313 314 312 312 312 311 311 312 312 311 311 312 311 311 312 311 312 313 314 315 313 313 313 312 312 311 310 309 310 311 312 312 311
314 310 309 312 313 312 314 313 315 317 316 313 312 312 312 310 310 311 310 309 308 308 309 309 309 309 309 311 311 311 311 311 311 311 310 309 309 309 310 312 311 311 312 312
315 314 314 314 314 313 313 314 315 313 311 311 310 310 310 310 309 308 307 306 305 305 305 306 307 307 307 308 308 308 309 309 308 309 308 309 309 309 310 311 311 312 313 314
314 313 310 314 311 310 309 311 309 309 308 308 308 308 309 307 306 306 305 304 303 303 303 304 305 305 305 305 305 306 306 307 307 308 309 310 310 310 310 311 311 312 312 314
312 310 312 310 312 306 306 306 306 306 306 306 307 307 307 306 305 304 303 302 302 301 302 303 303 304 304 304 304 305 305 306 307 308 309 309 309 310 310 312 313 312 311 313
310 309 307 307 308 305 307 305 304 304 305 306 306 305 306 304 304 303 302 302 300 300 301 301 301 301 302 302 303 303 304 305 308 308 308 309 310 311 311 310 310 312 313 313
309 307 308 307 305 305 305 304 304 305 305 304 304 305 305 304 303 301 301 300 299 299 298 299 299 300 301 302 303 303 304 306 307 308 309 311 312 313 314 314 313 313 314 315
Wind_Speed
17 4 6 13 12 13 14 14 16 12 10 8 8 9 14 14 7 7 12 21 25 26 26 16 18 26 23 20 23 28 24 24 27 37 21 21 23 22 22 15 22 28 23 21
6 9 13 17 11 10 12 7 8 14 14 15 14 14 9 4 4 10 17 20 16 18 14 18 24 25 22 21 17 17 20 21 19 26 30 21 26 27 25 28 25 18 20 25
8 10 12 12 10 8 6 7 7 10 15 17 14 12 9 5 4 12 25 29 26 30 30 28 27 26 23 21 18 16 14 16 19 19 18 22 21 27 31 26 27 23 18 16
9 7 10 11 13 4 4 8 14 13 8 5 5 10 8 7 7 10 26 33 31 34 32 32 32 30 25 20 18 15 15 13 15 18 20 22 30 27 23 16 29 37 36 24
9 11 11 14 8 6 8 11 8 6 10 6 10 4 8 6 10 16 11 30 33 37 37 38 36 28 19 13 11 13 13 14 14 15 16 19 24 30 39 31 22 25 30 41
12 22 11 10 17 8 7 6 6 5 4 10 13 6 14 13 12 17 26 27 36 32 32 35 31 25 21 13 13 13 16 15 15 14 12 12 15 17 20 26 27 25 25 26
14 15 15 22 18 12 7 2 5 4 4 12 14 12 11 8 11 14 22 22 26 27 29 32 25 21 18 12 16 19 20 14 14 15 14 14 15 16 14 17 18 21 24 25
10 11 10 14 9 9 8 9 6 4 5 5 11 5 7 9 17 27 3 24 26 34 29 27 22 20 16 16 19 21 24 19 15 16 20 21 20 19 17 18 17 19 19 18
7 10 8 14 2 3 5 8 4 5 1 3 4 12 9 6 8 23 6 21 24 25 25 25 23 25 20 16 15 19 21 22 19 18 21 23 20 18 20 18 18 18 20 21
6 12 3 9 12 4 7 9 3 3 5 6 6 5 5 2 4 17 6 4 11 13 13 14 20 23 22 18 18 23 24 23 23 21 20 21 20 19 18 15 18 21 24 23
5 5 7 4 3 5 5 6 3 4 4 5 6 6 2 1 4 7 6 18 7 10 10 11 13 14 16 19 22 19 20 21 20 18 17 20 21 21 23 25 27 27 26 25
4 3 7 8 9 13 2 4 4 3 6 3 2 12 6 3 6 3 2 4 22 22 12 15 20 16 16 16 15 18 20 20 20 21 23 25 26 24 25 23 25 26 25 27
5 3 4 6 5 4 5 4 6 4 4 6 4 5 9 1 4 7 5 11 20 16 30 16 16 15 15 19 21 20 20 20 21 21 21 21 22 25 27 28 29 28 29 29
7 4 5 6 11 12 3 4 7 7 4 4 6 10 15 17 9 11 17 24 19 17 26 20 10 25 25 20 18 17 18 18 19 21 23 25 28 28 29 29 29 31 32 34
4 1 3 9 14 18 16 15 13 17 14 8 15 14 12 7 9 18 26 18 18 17 30 22 23 34 40 22 16 15 17 14 15 17 12 13 17 20 23 26 29 32 36 39
2 3 2 5 16 18 21 13 12 17 16 21 16 19 4 12 16 14 17 22 32 24 21 13 21 10 10 7 11 17 19 20 22 25 26 28 29 26 27 30 33 36 38 37
5 4 3 5 7 11 7 4 10 14 10 3 5 4 5 4 7 11 18 23 26 16 8 13 13 14 12 15 18 19 25 27 26 24 24 27 30 34 36 35 36 39 41 44
7 4 2 3 3 3 6 5 4 12 3 11 1 5 1 5 11 18 11 9 15 26 26 25 22 20 20 22 23 27 28 26 28 31 36 38 39 41 45 47 49 48 42 43
3 2 1 2 2 9 11 5 4 3 6 12 7 7 9 16 18 14 10 20 20 34 28 28 28 30 32 32 33 33 32 34 32 36 37 40 42 44 45 48 49 49 49 54
2 6 3 1 1 3 0 8 13 8 3 13 17 11 10 16 5 5 24 29 32 34 32 32 34 30 32 33 34 36 33 29 30 31 36 39 42 45 48 44 41 43 46 49
1 1 3 4 4 6 5 10 18 4 5 16 15 19 19 7 10 27 30 29 29 31 35 34 31 29 26 25 26 30 29 31 33 36 42 45 46 42 40 41 42 41 44 44
2 2 2 1 2 3 5 4 4 6 14 18 19 22 24 26 27 27 31 34 40 44 43 41 39 41 40 39 41 41 39 41 40 41 45 43 42 38 40 42 43 41 41 42
3 3 2 0 4 9 14 12 15 20 19 22 22 26 26 28 32 30 30 35 40 43 42 40 40 43 41 40 39 41 43 39 41 41 42 41 42 49 47 45 46 41 39 39
5 10 3 5 2 14 15 16 20 25 24 27 27 25 31 29 34 33 40 39 40 42 41 39 37 38 38 36 35 35 37 36 37 40 45 50 54 46 44 42 45 41 39 36
3 4 6 6 4 25 2 26 26 33 31 29 30 33 33 37 31 35 37 38 42 40 37 36 38 39 39 39 40 38 36 35 37 45 52 49 50 49 52 47 46 42 37 35
4 1 1 4 15 14 23 28 30 27 29 35 39 40 38 33 36 43 41 37 37 37 37 37 39 40 40 37 38 36 37 38 41 46 47 49 51 54 52 51 49 48 42 37
Wind_Direction
274 181 237 234 234 235 249 262 274 294 316 328 291 295 252 223 197 227 246 242 251 232 204 197 203 210 208 210 215 215 228 213 208 223 233 258 257 238 232 230 235 238 241 242
258 251 234 244 254 264 284 307 309 315 318 308 298 287 279 220 208 265 284 288 192 181 188 185 195 196 200 200 210 220 216 213 204 206 214 226 241 246 240 237 232 230 233 241
245 273 288 281 279 265 290 301 295 270 280 284 292 293 281 251 266 280 273 268 231 196 185 189 197 210 212 207 211 219 223 225 221 220 211 213 224 248 240 230 237 225 227 247
261 286 302 298 293 302 282 277 283 289 306 256 323 287 293 300 268 250 253 252 253 209 196 202 206 206 205 200 204 219 236 241 236 231 226 226 228 231 247 251 238 240 241 250
281 299 303 296 264 267 267 271 275 326 315 321 289 302 282 283 280 279 267 250 236 220 210 203 200 189 172 180 201 228 242 245 251 258 249 244 241 231 238 257 253 247 260 257
267 274 279 264 283 265 291 316 330 323 304 282 271 246 278 274 275 273 276 275 231 215 190 189 179 169 168 179 207 215 232 257 261 255 253 245 241 234 234 238 249 259 244 240
247 254 250 247 252 248 220 334 308 298 272 254 258 258 245 307 296 284 274 245 149 150 147 149 158 175 186 216 216 223 225 233 262 262 275 271 261 261 242 252 250 250 253 247
260 271 255 279 297 212 226 192 213 251 234 270 310 248 238 255 301 304 88 135 137 141 144 154 166 186 198 220 223 224 225 229 233 263 280 282 281 280 281 269 265 261 264 265
292 286 324 309 332 7 306 257 265 305 28 337 270 283 290 285 3 322 118 137 142 145 163 173 191 189 190 206 217 225 225 224 225 243 265 266 270 274 284 285 278 272 271 271
278 297 271 308 316 228 174 224 291 98 227 231 228 251 250 303 309 217 316 109 123 131 143 163 173 188 206 218 228 233 231 237 245 247 256 255 252 270 273 273 279 283 282 279
13 272 291 342 280 244 293 269 305 307 251 201 274 249 136 9 14 84 96 280 142 156 178 201 233 248 243 245 242 224 231 241 240 239 242 235 245 255 259 267 276 281 278 281
211 248 269 265 268 284 192 190 86 261 277 307 319 263 358 344 322 69 154 320 341 349 317 241 236 228 231 236 226 226 234 238 241 247 250 252 257 260 260 265 279 287 283 278
346 297 324 329 325 74 102 163 168 245 244 215 244 269 323 164 91 56 17 297 293 300 326 293 338 271 245 240 236 233 233 245 245 249 248 248 250 251 257 261 269 279 290 281
89 81 282 255 293 315 255 184 217 150 245 226 233 276 285 296 218 252 241 238 232 260 300 303 287 281 273 247 241 239 239 248 249 243 252 262 267 261 260 260 265 274 285 286
89 348 256 282 277 280 287 292 248 228 230 235 257 257 256 305 302 238 241 223 219 238 268 269 299 274 263 274 250 249 249 233 236 241 246 274 267 265 267 270 274 278 280 283
335 225 175 270 267 277 283 290 301 286 233 240 254 259 338 11 354 1 350 322 253 234 253 261 273 237 233 245 281 270 277 274 276 283 278 280 279 275 278 279 278 277 278 274
247 211 249 276 305 325 302 307 348 340 276 329 290 329 358 7 347 329 340 16 10 316 294 306 310 322 313 286 285 287 289 289 281 277 278 275 275 276 277 275 275 273 273 274
235 256 244 282 340 264 205 85 103 339 341 66 310 30 224 271 307 317 2 349 328 328 334 335 330 319 310 299 298 295 282 268 269 269 272 271 271 270 271 271 269 266 267 266
92 210 168 165 235 278 300 33 343 342 31 17 17 349 354 347 333 324 36 340 323 309 309 310 307 305 307 300 290 291 290 276 267 267 269 271 272 273 274 274 272 269 267 264
35 46 121 354 226 274 140 349 330 296 193 2 350 355 348 344 332 295 322 322 316 309 304 306 310 299 297 294 296 292 283 265 265 268 272 276 278 281 280 271 264 263 261 265
139 25 161 238 253 280 9 342 333 4 337 316 345 348 341 326 307 315 321 325 323 320 314 308 309 306 309 307 301 295 289 284 284 283 285 285 285 279 272 268 267 269 261 262
172 186 166 209 255 296 357 352 357 335 343 358 349 335 320 314 312 314 315 317 313 310 307 302 299 295 292 292 290 291 291 290 292 289 287 283 282 278 268 265 266 268 259 257
38 31 241 41 252 43 355 55 3 1 352 341 329 321 316 315 314 312 318 312 305 302 299 295 293 292 289 289 291 290 287 291 290 289 290 282 277 279 274 263 264 260 256 250
346 42 23 350 81 1 330 2 351 337 328 322 322 317 314 317 309 310 313 306 303 300 296 296 294 291 292 295 293 290 292 295 292 289 280 281 285 279 275 269 253 244 246 244
10 349 343 267 337 342 314 338 329 327 324 318 312 318 310 310 304 303 304 296 299 295 296 295 294 294 295 294 293 295 294 296 286 283 286 288 282 271 267 262 253 244 244 240
346 69 305 265 319 297 291 309 313 312 313 314 315 313 310 315 312 302 294 295 297 296 297 295 295 293 293 294 292 294 293 293 291 294 295 293 292 287 275 243 230 237 242 242